Weather in Saldus

Latvia     56˚39′59″N   22˚29′38″E
temp.,
°C
wind,
m/s
gust,
m/s
humid.,
%
clouds,
%
prec.,
mm/h
press.,
hPa
HPBL,
m
2 december, wed
wed223:00−2˚sse379197 0.0 1029271
02:00−3˚sse379487 0.0 1030209
05:00−4˚sse369542 0.0 1029188
08:00−4˚sse369521 0.0 1029205
11:00−3˚sse378837 0.0 1030289
14:00−2˚sse368418 0.0 1028381
17:00−4˚se49920 0.0 1027338
20:00−4˚se410931 0.0 1026362
3 december, thu
thu323:00−4˚se499367 0.0 1024400
02:00−5˚se499479 0.0 1023372
05:00−4˚se499486 0.0 1020381
08:00−4˚se5109379 0.0 1019450
11:00−3˚sse5990100 0.0 1018521
14:00−3˚sse5986100 0.1 1017623
17:00−2˚sse61185100 0.0 1015641
20:00−2˚se71485100 0.0 1014583
4 december, fri
fri423:00−1˚sse71489100 0.3 1013664
02:00sse71494100 1.6 1012771
05:00+1˚sse71587100 0.5 1010742
08:00+1˚se71588100 1.0 1010678
11:00+1˚se71590100 0.3 1010649
14:00+2˚sse71689100 0.3 1010726
17:00+2˚se71689100 0.0 1009661
20:00+2˚se71689100 0.0 1010668
5 december, sat
sat523:00+2˚sse71590100 0.0 1011672
02:00+3˚sse7169099 0.0 1010674
05:00+5˚sse71691100 0.0 1011658
08:00+5˚sse71690100 0.0 1012695
11:00+5˚sse81689100 0.0 1013675
14:00+5˚sse71487100 0.0 1014677
17:00+6˚se71487100 0.0 1015679
20:00+6˚se71486100 0.0 1015762
6 december, sun
sun623:00+6˚se71486100 0.0 1016785
02:00+6˚se7148697 0.0 1016661
05:00+6˚se7148673 0.0 1017734
08:00+5˚se7138686 0.0 1017761
11:00+5˚se71483100 0.0 1018768
14:00+5˚se71380100 0.0 1019810
17:00+4˚se7148087 0.0 1019760
20:00+2˚se8158186 0.0 1020727